Weather History for KBGR - March, 2014

Change the Weather History Date:

Friday, March 14, 2014

  Actual Average Record
Temperature  
Mean Temperature 14 °F 29 °F  
Max Temperature 33 °F 39 °F 56 °F (1927)
Min Temperature -6 °F 20 °F -12 °F (1948)
Degree Days  
Heating Degree Days 51 36  
Month to date heating degree days 646 530  
Since 1 July heating degree days 6398 6176  
Cooling Degree Days 0 0  
Month to date cooling degree days 0 0  
Year to date cooling degree days 0 0  
Moisture  
Dew Point 7 °F    
Average Humidity 64    
Maximum Humidity 79    
Minimum Humidity 49    
Precipitation  
Precipitation 0.00 in 0.10 in 1.26 in (1984)
Month to date precipitation 1.27 1.40  
Year to date precipitation 6.44 6.81  
Snow  
Snow 0.00 in 0.40 in 17.20 in (1984)
Month to date snowfall 12.9 6.2  
Since 1 July snowfall 76.1 56.9  
Snow Depth 17.00 in    
Sea Level Pressure  
Sea Level Pressure 29.97 in    
Wind  
Wind Speed 7 mph (SSW)    
Max Wind Speed 16 mph    
Max Gust Speed 22 mph    
Visibility 10 miles    
Events      
T = Trace of Precipitation, MM = Missing Value Source: NWS Daily Summary

Daily Weather History Graph

Daily Weather History Graph

Search for Another Location

Airport or City:

Trip Planner

Search our weather history database for the weather conditions in past years. The results will help you decide how hot, cold, wet, or windy it might be!

Date:

Astronomy

Mar. 14, 2014 Rise Set
Actual Time 6:49 AM EDT 6:40 PM EDT
Civil Twilight 6:20 AM EDT 7:09 PM EDT
Nautical Twilight 5:46 AM EDT 7:43 PM EDT
Astronomical Twilight 5:12 AM EDT 8:17 PM EDT
Moon 4:55 PM EDT (3/14) 5:31 AM EDT (3/14)
Length of Visible Light 12h 48m
Length of Day
11h 50m
Waxing Gibbous, 96% of the Moon is Illuminated
Mar 14
Waxing Gibbous
Mar 16
Full
Mar 23
Last Quarter
Mar 30
New
Apr 7
First Quarter

Hourly Weather History & Observations

Time (EDT) Temp. Windchill Dew Point Humidity Pressure Visibility Wind Dir Wind Speed Gust Speed Precip Events Conditions
12:53 AM 10.0 °F -0.9 °F 1.0 °F 67% 29.78 in 10.0 mi West 6.9 mph - N/A   Partly Cloudy
1:53 AM 8.1 °F -2.0 °F -0.9 °F 67% 29.81 in 10.0 mi WNW 5.8 mph - N/A   Clear
2:53 AM -0.9 °F - -5.1 °F 83% 29.85 in 10.0 mi Calm Calm - N/A   Clear
3:53 AM 6.1 °F -5.6 °F -2.9 °F 67% 29.88 in 10.0 mi West 6.9 mph - N/A   Clear
4:53 AM 1.9 °F -9.2 °F -4.0 °F 76% 29.92 in 10.0 mi WSW 5.8 mph - N/A   Clear
5:53 AM 3.9 °F -8.2 °F -4.0 °F 70% 29.97 in 10.0 mi West 6.9 mph - N/A   Clear
6:53 AM -2.0 °F - -9.0 °F 72% 30.01 in 10.0 mi Calm Calm - N/A   Clear
7:53 AM -2.9 °F -11.2 °F -8.0 °F 79% 30.04 in 10.0 mi SW 3.5 mph - N/A   Clear
8:53 AM 9.0 °F 0.6 °F -0.9 °F 64% 30.07 in 10.0 mi WSW 4.6 mph - N/A   Clear
9:53 AM 14.0 °F 8.2 °F 1.0 °F 56% 30.06 in 10.0 mi ENE 3.5 mph - N/A   Clear
10:53 AM 17.1 °F 7.6 °F 1.0 °F 50% 30.08 in 10.0 mi West 6.9 mph - N/A   Clear
11:53 AM 19.0 °F 11.1 °F 3.0 °F 50% 30.09 in 10.0 mi WSW 5.8 mph - N/A   Clear
12:53 PM 21.0 °F 14.6 °F 8.1 °F 57% 30.08 in 10.0 mi SW 4.6 mph - N/A   Clear
1:53 PM 24.1 °F 12.5 °F 10.0 °F 55% 30.04 in 10.0 mi South 12.7 mph - N/A   Partly Cloudy
2:53 PM 26.1 °F 15.0 °F 12.0 °F 55% 30.02 in 10.0 mi South 12.7 mph - N/A   Partly Cloudy
3:53 PM 27.0 °F 15.2 °F 10.9 °F 51% 30.01 in 10.0 mi South 15.0 mph - N/A   Partly Cloudy
4:53 PM 27.0 °F 16.1 °F 12.9 °F 56% 29.99 in 10.0 mi South 12.7 mph - N/A   Partly Cloudy
5:53 PM 26.1 °F 16.8 °F 15.1 °F 63% 29.98 in 10.0 mi South 9.2 mph - N/A   Mostly Cloudy
6:53 PM 26.1 °F 16.2 °F 16.0 °F 66% 29.96 in 10.0 mi South 10.4 mph - N/A   Overcast
7:53 PM 27.0 °F 16.7 °F 17.1 °F 66% 29.95 in 10.0 mi South 11.5 mph - N/A   Overcast
8:53 PM 28.0 °F 18.1 °F 19.0 °F 69% 29.94 in 10.0 mi South 11.5 mph - N/A   Scattered Clouds
9:53 PM 30.0 °F 20.5 °F 21.9 °F 72% 29.92 in 10.0 mi South 11.5 mph - N/A   Scattered Clouds
10:53 PM 30.9 °F 21.7 °F 24.1 °F 76% 29.89 in 10.0 mi South 11.5 mph - N/A   Partly Cloudy
11:53 PM 33.1 °F 23.4 °F 24.1 °F 70% 29.86 in 10.0 mi South 13.8 mph - N/A   Overcast